< Typhoon 201918 2019 Season Typhoon 201920 >
Typhoon 201919 (HAGIBIS)
General InformationTrack Information on Google MapsDetailed Wind InformationForecast History on Google MapsAccess Analytics MapList of All Images || NewsDisaster Info.WeblogTrackbackTyphoon FrontTwiphoonTyphoon Now!Typhoon ImaginationJMA Disaster Info. XMLResourceGoogle EarthGE AnimationAtom FeedGeoJSON
Detalied Best Track (Time Zone = UTC)
Year Month Day Hour Lat. Long. Pressure (hPa) Wind (kt) Class Image Chart
2019 10 5 00 15.0 162.7 1006 30 2 Image Chart
2019 10 5 03 15.1 161.7 1004 30 2 Image Chart
2019 10 5 06 15.3 161.1 1004 30 2 Image Chart
2019 10 5 09 15.3 160.4 1004 30 2 Image Chart
2019 10 5 12 15.3 159.9 1004 30 2 Image Chart
2019 10 5 15 15.3 159.1 1004 30 2 Image Chart
2019 10 5 18 15.1 158.2 1000 35 3 Image Chart
2019 10 5 21 15.1 157.4 1000 35 3 Image Chart
2019 10 6 00 15.0 156.2 996 40 3 Image Chart
2019 10 6 03 15.0 155.4 996 40 3 Image Chart
2019 10 6 06 14.7 154.3 992 45 3 Image Chart
2019 10 6 09 14.4 153.7 992 45 3 Image Chart
2019 10 6 12 14.4 152.8 990 50 4 Image Chart
2019 10 6 15 14.4 152.1 985 55 4 Image Chart
2019 10 6 18 14.9 151.2 975 65 5 Image Chart
2019 10 6 21 15.0 150.4 970 70 5 Image Chart
2019 10 7 00 15.1 149.6 965 75 5 Image Chart
2019 10 7 03 15.3 148.9 950 85 5 Image Chart
2019 10 7 06 15.5 148.2 925 100 5 Image Chart
2019 10 7 09 15.9 147.3 915 105 5 Image Chart
2019 10 7 12 16.1 146.6 915 105 5 Image Chart
2019 10 7 15 16.3 145.7 915 105 5 Image Chart
2019 10 7 18 16.5 144.9 915 105 5 Image Chart
2019 10 7 21 16.6 144.2 915 105 5 Image Chart
2019 10 8 00 16.9 143.8 915 105 5 Image Chart
2019 10 8 03 17.3 143.2 915 105 5 Image Chart
2019 10 8 06 17.7 142.7 915 105 5 Image Chart
2019 10 8 09 18.0 142.2 915 105 5 Image Chart
2019 10 8 12 18.4 141.8 915 105 5 Image Chart
2019 10 8 15 18.9 141.4 915 105 5 Image Chart
2019 10 8 18 19.3 140.9 915 105 5 Image Chart
2019 10 8 21 19.5 140.6 915 105 5 Image Chart
2019 10 9 00 19.8 140.4 915 105 5 Image Chart
2019 10 9 03 20.2 140.1 915 105 5 Image Chart
2019 10 9 06 20.6 140.0 915 105 5 Image Chart
2019 10 9 09 21.0 139.8 915 105 5 Image Chart
2019 10 9 12 21.2 139.6 915 105 5 Image Chart
2019 10 9 15 21.5 139.6 915 105 5 Image Chart
2019 10 9 18 22.0 139.7 915 105 5 Image Chart
2019 10 9 21 22.5 139.9 915 105 5 Image Chart
2019 10 10 00 23.2 139.9 915 105 5 Image Chart
2019 10 10 03 23.9 139.7 915 105 5 Image Chart
2019 10 10 06 24.4 139.4 915 105 5 Image Chart
2019 10 10 09 24.9 139.2 915 105 5 Image Chart
2019 10 10 12 25.3 139.0 920 100 5 Image Chart
2019 10 10 15 25.7 138.8 920 100 5 Image Chart
2019 10 10 18 26.3 138.6 925 95 5 Image Chart
2019 10 10 21 26.9 138.4 925 95 5 Image Chart
2019 10 11 00 27.5 138.1 925 95 5 Image Chart
2019 10 11 03 28.1 137.8 925 95 5 Image Chart
2019 10 11 06 28.8 137.5 925 95 5 Image Chart
2019 10 11 09 29.3 137.3 925 95 5 Image Chart
2019 10 11 12 29.9 137.1 935 90 5 Image Chart
2019 10 11 15 30.3 137.0 935 90 5 Image Chart
2019 10 11 18 30.8 137.1 935 90 5 Image Chart
2019 10 11 21 31.4 137.1 935 90 5 Image Chart
2019 10 12 00 32.0 137.4 945 85 5 Image Chart
2019 10 12 03 32.8 137.6 945 85 5 Image Chart
2019 10 12 06 33.7 138.2 945 85 5 Image Chart
2019 10 12 09 34.6 138.7 955 80 5 Image Chart
2019 10 12 12 35.6 139.6 960 75 5 Image Chart
2019 10 12 15 36.9 140.6 970 65 5 Image Chart
2019 10 12 18 38.2 141.8 975 60 4 Image Chart
2019 10 12 21 39.5 143.5 975 60 4 Image Chart
2019 10 13 00 40.1 145.1 975 60 4 Image Chart
2019 10 13 03 41.0 147.0 980 60 6 Image Chart
Japan Meteorological Agency Best Track Data | Correction Date : 2019-10-13
< Typhoon 201918 2019 Season Typhoon 201920 >

Help